STAR ONE C4

Last updated on Sat Aug 15 2026 00:02:59 GMT+0000 (Coordinated Universal Time)

1 40733U 15034B 26226.47614030 -.00000280 00000+0 00000+0 0 9992 2 40733 0.0346 340.5239 0001080 166.1742 277.6084 1.00271062 40595
UTC large
Height (km)
Speed (km/s)
/
Latitude / Longitude
Inclination (degrees)
Orbital Period (minutes)
Azimuth
Elevation
Range (km)
Doppler Factor

Next 0 passes for location: London (51.5072 / 0.1276)

No passes found over London.
STAR ONE C4